PBO Station Position Time Series. Reference Frame : NAM14
Format Version,1.1.1
4-character ID,NRWY
Station name,NRWY_EBRY_WY2003
Begin Date, 2003-10-12
End Date, 2023-06-26
Release Date, 2023-06-27
Reference position, 44.7148476237 North Latitude, -110.6777181684 East Longitude, 2342.66872 meters elevation,
Date, North (mm), East (mm), Vertical (mm), North Std. Deviation (mm), East Std. Deviation (mm),              Vertical Std. Deviation (mm), Quality,
2003-10-12,0.00, 0.00, 0.00, 2.30, 1.68, 7.44, repro,
2003-10-13,0.70, 0.88, 2.58, 2.30, 1.69, 7.47, repro,
2003-10-14,0.18, -1.36, 5.80, 2.31, 1.70, 7.49, repro,
2003-10-15,1.78, 0.79, 3.98, 2.28, 1.72, 7.53, repro,
2003-10-16,0.36, 0.02, 2.52, 2.18, 1.65, 7.30, repro,
2003-10-17,-0.43, 0.65, 0.04, 2.23, 1.67, 7.30, repro,
2003-10-18,0.88, -0.03, 0.20, 2.21, 1.66, 7.26, repro,
2003-10-19,-1.20, 0.17, -1.21, 2.24, 1.67, 7.39, repro,
2003-10-20,-0.31, 0.50, 1.11, 2.27, 1.73, 7.52, repro,
2003-10-21,1.92, -0.12, -3.32, 2.22, 1.68, 7.43, repro,
2003-10-22,0.69, -0.18, -1.73, 2.32, 1.74, 7.71, repro,
2003-10-23,-0.24, 0.10, -1.55, 2.24, 1.66, 7.41, repro,
2003-10-24,0.71, 0.35, 6.30, 2.30, 1.70, 7.52, repro,
2003-10-25,2.65, 0.21, -7.41, 2.21, 1.67, 7.43, repro,
2003-10-26,2.79, 0.55, -2.84, 2.28, 1.79, 7.84, repro,
2003-10-27,1.91, 2.40, 4.75, 2.29, 1.74, 7.72, repro,
2003-10-28,-0.73, 1.34, 3.65, 2.18, 1.63, 7.26, repro,
2003-10-29,1.42, 1.92, -9.83, 2.49, 1.88, 8.65, repro,
2003-10-30,2.56, 1.53, -4.11, 2.67, 1.94, 8.96, repro,
2003-10-31,1.43, 1.14, -7.46, 2.29, 1.66, 7.46, repro,
2003-11-01,0.81, 1.00, -4.21, 2.20, 1.61, 7.18, repro,
2003-11-02,-0.71, 0.45, -2.58, 2.22, 1.66, 7.38, repro,
2003-11-03,-1.97, 1.61, -3.03, 2.25, 1.63, 7.35, repro,
2003-11-04,-0.50, 1.55, 0.28, 2.22, 1.63, 7.32, repro,
2003-11-05,1.31, 0.34, 6.27, 2.19, 1.62, 7.14, repro,
2003-11-06,5.05, -2.28, -2.31, 2.19, 1.61, 7.18, repro,
2003-11-07,1.83, 3.43, -4.84, 2.31, 1.75, 7.84, repro,
2003-11-08,-4.34, -0.18, -11.09, 2.36, 1.80, 8.17, repro,
2003-11-09,-15.19, -1.08, -17.58, 2.60, 1.87, 8.17, repro,
2003-11-10,-16.53, -3.78, -23.82, 2.20, 1.65, 7.37, repro,
2003-11-11,-7.11, -1.03, -2.71, 2.31, 1.68, 7.71, repro,
2003-11-12,-1.32, 0.47, -0.18, 2.25, 1.63, 7.38, repro,
2003-11-13,-8.36, -1.03, -26.54, 2.35, 1.69, 7.61, repro,
2003-11-14,-10.76, -0.25, -16.21, 2.39, 1.69, 7.72, repro,
2003-11-15,-11.54, 0.56, -9.87, 2.23, 1.65, 7.27, repro,
2003-11-16,-9.47, 1.28, -9.44, 2.29, 1.71, 7.59, repro,
2003-11-17,-8.05, 1.50, -6.62, 2.28, 1.74, 7.52, repro,
2003-11-18,-10.38, 2.08, -13.90, 2.31, 1.75, 7.72, repro,
2003-11-19,-9.03, -0.81, -22.76, 2.24, 1.68, 7.40, repro,
2003-11-20,-4.72, -1.74, -6.75, 2.44, 1.84, 8.39, repro,
2003-11-21,-8.00, -0.58, -7.62, 2.27, 1.68, 7.42, repro,
2003-11-22,-7.86, -0.52, -10.31, 2.34, 1.84, 8.03, repro,
2003-11-23,-8.35, -0.54, -13.41, 2.36, 1.81, 7.97, repro,
2003-11-24,-8.69, -1.06, -7.11, 2.22, 1.66, 7.24, repro,
2003-11-25,-7.03, 0.09, -6.32, 2.31, 1.70, 7.65, repro,
2003-11-26,-9.88, 0.05, -4.73, 2.15, 1.63, 7.18, repro,
2003-11-27,-6.65, -1.21, -17.68, 2.27, 1.71, 7.58, repro,
2003-11-28,-7.77, -0.13, -17.85, 2.22, 1.67, 7.29, repro,
2003-11-29,-8.41, 0.10, -5.51, 2.24, 1.74, 7.53, repro,
2003-11-30,-6.13, -0.77, -18.57, 2.15, 1.62, 7.12, repro,
2003-12-01,-0.48, 2.28, -12.09, 2.32, 1.80, 7.71, repro,
2003-12-02,-5.88, 4.76, -16.73, 2.29, 1.70, 7.60, repro,
2003-12-03,-7.31, 6.97, -6.10, 2.28, 1.73, 7.60, repro,
2003-12-04,-3.45, 4.31, -1.55, 2.53, 1.92, 8.32, repro,
2003-12-05,-5.62, 7.78, -9.59, 2.27, 1.73, 7.54, repro,
2003-12-06,-8.75, 6.41, -12.27, 2.17, 1.63, 7.16, repro,
2003-12-07,-6.22, 4.73, -8.59, 2.29, 1.72, 7.47, repro,
2003-12-08,-2.33, 2.85, -12.68, 2.33, 1.78, 7.73, repro,
2003-12-09,-4.56, 3.87, -26.46, 2.36, 1.75, 7.63, repro,
2003-12-10,-5.81, 2.87, -24.02, 2.20, 1.68, 7.29, repro,
2003-12-11,-3.96, 2.86, -21.91, 2.30, 1.74, 7.58, repro,
2003-12-12,-4.59, 2.94, -27.14, 2.23, 1.70, 7.45, repro,
2003-12-13,-6.88, 3.15, -19.20, 2.22, 1.70, 7.45, repro,
2003-12-14,-5.94, 1.21, -22.78, 2.21, 1.70, 7.41, repro,
2003-12-15,-4.13, -1.06, -22.98, 2.24, 1.69, 7.39, repro,
2003-12-16,-5.62, -0.33, -27.35, 2.25, 1.75, 7.55, repro,
2003-12-17,-4.95, 0.09, -29.09, 2.33, 1.78, 7.82, repro,
2003-12-18,-1.18, -0.48, -33.29, 2.31, 1.81, 7.91, repro,
2003-12-19,-2.51, -3.97, -21.75, 2.26, 1.76, 7.70, repro,
2003-12-20,-2.10, -0.81, -6.20, 2.42, 1.83, 7.92, repro,
2003-12-21,-3.62, -3.53, -2.76, 2.42, 1.87, 7.99, repro,
2003-12-22,-3.58, -1.02, -10.25, 2.24, 1.71, 7.46, repro,
2003-12-23,-4.07, -1.75, -10.88, 2.31, 1.73, 7.59, repro,
2003-12-24,-10.30, 2.38, 5.42, 2.26, 1.73, 7.61, repro,
2003-12-25,-10.31, 2.94, 1.23, 2.32, 1.77, 7.88, repro,
2003-12-26,-8.45, -0.16, -0.67, 2.20, 1.65, 7.38, repro,
2003-12-27,-4.58, 0.53, -6.52, 2.20, 1.65, 7.39, repro,
2003-12-28,-5.28, -0.22, -5.25, 2.19, 1.66, 7.41, repro,
2003-12-29,-5.21, 1.77, -6.37, 2.22, 1.65, 7.37, repro,
2003-12-30,-6.00, 2.44, -9.35, 2.21, 1.65, 7.33, repro,
2003-12-31,-5.26, 1.57, -17.25, 2.18, 1.61, 7.16, repro,
2004-01-01,-6.38, 0.99, -19.42, 2.25, 1.69, 7.56, repro,
2004-01-02,-4.39, 1.69, -30.37, 2.23, 1.70, 7.45, repro,
2004-01-03,-3.82, 0.12, -25.25, 2.25, 1.70, 7.42, repro,
2004-01-04,-3.76, 0.39, -30.75, 2.26, 1.71, 7.57, repro,
2004-01-05,-3.42, 1.07, -37.42, 2.22, 1.68, 7.32, repro,
2004-01-06,-4.22, 0.56, -27.66, 2.28, 1.70, 7.43, repro,
2004-01-07,-3.53, 0.19, -33.55, 2.23, 1.69, 7.41, repro,
2004-01-08,-4.67, -1.36, -39.73, 2.26, 1.70, 7.54, repro,
2004-01-09,-2.46, -0.19, -46.75, 2.39, 1.75, 7.63, repro,
2004-01-10,-0.31, -7.69, -53.99, 2.25, 1.68, 7.33, repro,
2004-01-11,-1.07, -6.01, -55.49, 2.26, 1.70, 7.48, repro,
2004-01-12,6.83, -4.68, -59.79, 2.31, 1.70, 7.52, repro,
2004-01-13,-7.42, -3.53, -39.08, 2.41, 1.75, 7.92, repro,
2004-01-14,-12.34, -3.67, -38.54, 2.41, 1.76, 7.88, repro,
2004-01-15,-17.69, -4.11, -9.70, 2.30, 1.70, 7.65, repro,
2004-01-16,-21.82, -1.38, -17.84, 2.37, 1.73, 7.78, repro,
2004-01-17,2.21, 0.33, -3.88, 2.29, 1.76, 7.74, repro,
2004-01-18,0.97, -0.47, -0.01, 2.36, 1.74, 7.81, repro,
2004-01-19,2.07, -0.99, 0.26, 2.29, 1.66, 7.50, repro,
2004-01-20,1.34, 0.08, -10.79, 2.36, 1.72, 7.64, repro,
2004-01-21,2.24, 0.96, -7.01, 2.32, 1.72, 7.73, repro,
2004-01-22,1.13, -0.82, -0.35, 2.25, 1.67, 7.50, repro,
2004-01-23,1.30, -1.36, 3.78, 2.22, 1.68, 7.43, repro,
2004-01-24,1.14, -1.25, -2.43, 2.30, 1.71, 7.71, repro,
2004-01-25,1.84, -0.11, -8.21, 2.30, 1.76, 7.77, repro,
2004-01-26,0.85, 0.41, -14.35, 2.28, 1.70, 7.51, repro,
2004-01-27,1.86, 1.87, -4.89, 2.36, 1.82, 8.08, repro,
2004-01-28,2.06, 1.01, -0.38, 2.43, 1.84, 8.09, repro,
2004-01-29,1.21, 1.94, 7.47, 2.26, 1.69, 7.55, repro,
2004-01-30,0.57, 3.71, -8.72, 2.24, 1.65, 7.39, repro,
2004-01-31,2.56, 4.12, -14.65, 2.25, 1.67, 7.47, repro,
2004-02-01,2.71, 4.81, -24.14, 2.24, 1.71, 7.52, repro,
2004-02-02,2.02, 4.65, -35.68, 2.18, 1.64, 7.29, repro,
2004-02-03,4.33, 3.59, -31.94, 2.20, 1.69, 7.46, repro,
2004-02-04,4.21, 2.93, -29.64, 2.21, 1.68, 7.46, repro,
2004-02-05,2.94, 2.28, -34.84, 2.25, 1.70, 7.52, repro,
2004-02-06,2.17, 1.08, -39.00, 2.29, 1.70, 7.59, repro,
2004-02-07,-0.15, 1.14, -30.38, 2.33, 1.75, 7.82, repro,
2004-02-08,-0.49, 1.51, -22.76, 2.29, 1.76, 7.61, repro,
2004-02-09,-0.75, 1.47, -26.37, 2.19, 1.65, 7.28, repro,
2004-02-10,-0.52, 1.52, -27.28, 2.23, 1.67, 7.33, repro,
2004-02-11,1.89, 1.28, -20.18, 2.18, 1.64, 7.24, repro,
2004-02-12,0.10, 2.49, -31.90, 2.34, 1.76, 7.76, repro,
2004-02-15,-8.56, 5.15, -28.23, 2.35, 1.78, 7.91, repro,
2004-02-16,-8.04, 6.74, -29.94, 2.31, 1.71, 7.61, repro,
2004-02-17,-10.89, 3.16, -33.47, 2.25, 1.68, 7.52, repro,
2004-02-18,-8.43, 4.69, -54.97, 2.25, 1.67, 7.53, repro,
2004-02-19,-7.53, 3.70, -24.73, 2.28, 1.68, 7.69, repro,
2004-02-20,-12.60, 2.46, -29.68, 2.43, 1.77, 7.95, repro,
2004-02-21,-9.84, 1.13, -30.34, 2.19, 1.64, 7.27, repro,
2004-02-22,-12.87, 5.35, -20.19, 2.42, 1.75, 7.82, repro,
2004-02-23,-17.27, 7.81, -17.43, 2.23, 1.69, 7.42, repro,
2004-02-24,-15.94, 4.92, -11.05, 2.38, 1.75, 7.70, repro,
2004-02-25,0.62, 2.00, -15.78, 2.26, 1.68, 7.46, repro,
2004-02-26,0.61, 3.44, -11.77, 2.23, 1.66, 7.29, repro,
2004-02-27,3.23, 3.31, -3.68, 2.24, 1.66, 7.33, repro,
2004-02-28,2.92, 2.53, -6.00, 2.23, 1.65, 7.23, repro,
2004-02-29,3.25, 2.73, -11.73, 2.21, 1.64, 7.25, repro,
2004-03-01,2.37, 0.40, -21.70, 2.23, 1.65, 7.30, repro,
2004-03-02,2.32, -0.51, -21.88, 2.22, 1.65, 7.29, repro,
2004-03-03,2.64, 0.95, -16.39, 2.26, 1.71, 7.52, repro,
2004-03-04,2.77, -0.88, -16.35, 2.33, 1.73, 7.61, repro,
2004-03-05,1.17, 3.71, -5.37, 2.24, 1.71, 7.54, repro,
2004-03-06,1.20, 4.45, -11.76, 2.22, 1.67, 7.38, repro,
2004-03-07,1.33, 1.46, -9.50, 2.23, 1.65, 7.31, repro,
2004-03-08,4.54, -0.37, -19.62, 2.25, 1.70, 7.52, repro,
2004-03-09,3.26, 2.02, -2.58, 2.30, 1.75, 7.74, repro,
2004-03-10,2.15, 1.99, -2.20, 2.27, 1.71, 7.58, repro,
2004-03-11,3.34, 1.67, -10.66, 2.25, 1.72, 7.58, repro,
2004-03-12,2.25, 1.25, -2.45, 2.26, 1.70, 7.50, repro,
2004-03-13,3.75, 1.01, -2.29, 2.33, 1.77, 7.75, repro,
2004-03-14,3.08, 2.98, -9.21, 2.25, 1.68, 7.44, repro,
2004-03-15,0.92, 2.35, -2.44, 2.25, 1.70, 7.53, repro,
2004-03-16,1.43, 4.82, -0.39, 2.26, 1.70, 7.53, repro,
2004-03-17,0.66, 2.67, 0.49, 2.37, 1.75, 7.82, repro,
2004-03-18,0.37, 0.02, 2.06, 2.41, 1.76, 8.00, repro,
2004-03-19,2.98, -0.27, -4.77, 2.35, 1.74, 7.93, repro,
2004-03-20,2.32, -0.17, -9.20, 2.32, 1.69, 7.70, repro,
2004-03-21,0.78, 0.35, -11.29, 2.35, 1.73, 7.83, repro,
2004-03-22,2.58, 0.83, -6.78, 2.31, 1.72, 7.75, repro,
2004-03-23,2.69, -0.34, 1.34, 2.28, 1.70, 7.61, repro,
2004-03-24,1.29, 1.10, 0.04, 2.32, 1.70, 7.67, repro,
2004-03-25,4.08, 1.15, 2.06, 2.34, 1.70, 7.71, repro,
2004-03-26,0.61, -0.36, -3.00, 2.30, 1.68, 7.60, repro,
2004-03-27,3.71, 1.09, -3.30, 2.31, 1.69, 7.73, repro,
2004-03-28,3.19, -1.22, -4.68, 2.29, 1.67, 7.59, repro,
2004-03-29,3.21, -0.52, -8.02, 2.35, 1.73, 7.75, repro,
2004-03-30,1.92, 0.67, -9.15, 2.29, 1.71, 7.54, repro,
2004-03-31,1.88, 1.41, -9.69, 2.25, 1.66, 7.36, repro,
2004-04-01,3.49, 0.02, -7.50, 2.31, 1.70, 7.61, repro,
2004-04-02,3.80, 1.10, -11.34, 2.23, 1.65, 7.36, repro,
2004-04-03,4.12, 1.94, -15.80, 2.23, 1.66, 7.38, repro,
2004-04-04,0.76, -0.70, -10.41, 2.23, 1.67, 7.35, repro,
2004-04-05,2.75, 1.81, -11.53, 2.22, 1.64, 7.30, repro,
2004-04-06,3.36, 0.68, -9.38, 2.20, 1.62, 7.21, repro,
2004-04-07,2.66, 0.43, -11.24, 2.25, 1.64, 7.41, repro,
2004-04-08,2.50, 0.53, -3.75, 2.21, 1.62, 7.20, repro,
2004-04-09,3.81, 1.31, -17.69, 2.20, 1.62, 7.21, repro,
2004-04-10,2.47, 1.36, -8.09, 2.19, 1.60, 7.13, repro,
2004-04-11,1.61, 1.11, -10.56, 2.21, 1.63, 7.20, repro,
2004-04-12,2.44, -0.08, -14.15, 2.31, 1.73, 7.53, repro,
2004-04-13,2.44, -0.29, -14.43, 2.26, 1.62, 7.35, repro,
2004-04-14,4.04, 0.50, -6.08, 2.25, 1.63, 7.41, repro,
2004-04-15,1.92, 2.02, -4.39, 2.21, 1.62, 7.22, repro,
2004-04-16,1.66, 1.57, -5.35, 2.21, 1.63, 7.29, repro,
2004-04-17,4.84, 5.65, -19.78, 2.30, 1.69, 7.44, repro,
2004-04-18,1.25, 3.01, -10.74, 2.21, 1.62, 7.18, repro,
2004-04-19,0.95, 2.36, 3.31, 2.47, 1.90, 8.48, repro,
2004-04-20,-5.33, 12.99, 3.30, 2.26, 1.67, 7.46, repro,
2004-04-21,1.01, 1.57, 3.60, 2.22, 1.63, 7.26, repro,
2004-04-22,0.87, 0.46, -3.51, 2.36, 1.72, 7.63, repro,
2004-04-23,2.50, 1.60, -12.50, 2.22, 1.62, 7.22, repro,
2004-04-24,4.02, 0.71, -8.71, 2.20, 1.63, 7.23, repro,
2004-04-25,3.27, -0.52, -4.07, 2.23, 1.65, 7.33, repro,
2004-04-26,1.92, 0.50, -12.45, 2.21, 1.61, 7.18, repro,
2004-04-27,0.97, 0.03, 0.86, 2.22, 1.61, 7.21, repro,
2004-04-28,2.75, 1.10, 3.01, 2.21, 1.60, 7.15, repro,
2004-04-29,2.19, 0.93, -7.93, 2.22, 1.65, 7.35, repro,
2004-04-30,2.53, 0.78, -12.33, 2.24, 1.65, 7.36, repro,
2004-05-01,1.09, 0.81, -1.29, 2.27, 1.67, 7.49, repro,
2004-05-02,-0.02, 1.99, -6.23, 2.28, 1.67, 7.46, repro,
2004-05-03,0.90, 1.69, 4.35, 2.29, 1.69, 7.55, repro,
2004-05-04,1.21, 0.15, 4.16, 2.29, 1.69, 7.60, repro,
2004-05-05,2.73, 1.39, -2.78, 2.35, 1.73, 7.68, repro,
2004-05-06,1.20, 1.20, -8.72, 2.26, 1.65, 7.40, repro,
2004-05-07,-0.13, 1.94, -3.65, 2.28, 1.68, 7.48, repro,
2004-05-08,0.48, 3.66, 5.66, 2.34, 1.75, 7.82, repro,
2004-05-09,2.51, 2.96, 0.28, 2.37, 1.79, 7.97, repro,
2004-05-10,3.54, 3.39, 2.46, 2.27, 1.67, 7.46, repro,
2004-05-11,0.79, 3.47, -2.90, 2.26, 1.68, 7.48, repro,
2004-05-12,2.22, 2.20, -5.99, 2.26, 1.68, 7.45, repro,
2004-05-13,2.12, 2.35, -0.90, 2.29, 1.67, 7.46, repro,
2004-05-14,4.08, 3.83, -8.98, 2.31, 1.75, 7.77, repro,
2004-05-15,1.94, 2.31, 1.04, 2.24, 1.64, 7.25, repro,
2004-05-16,1.86, 1.10, -7.87, 2.29, 1.70, 7.53, repro,
2004-05-17,0.86, 2.94, -8.22, 2.26, 1.66, 7.42, repro,
2004-05-18,3.11, 1.44, -1.93, 2.18, 1.63, 7.15, repro,
2004-05-19,2.17, 2.09, 8.40, 2.21, 1.63, 7.22, repro,
2004-05-20,1.89, 1.67, -5.31, 2.21, 1.62, 7.19, repro,
2004-05-21,2.45, 2.46, -1.21, 2.25, 1.66, 7.32, repro,
2004-05-22,-1.77, -0.91, 75.56, 2.35, 1.75, 8.37, repro,
2004-05-23,-0.87, 0.13, -18.09, 2.19, 1.63, 7.31, repro,
2004-05-24,1.74, 2.20, 4.12, 2.21, 1.65, 7.28, repro,
2004-05-25,2.15, 1.83, 8.08, 2.27, 1.67, 7.49, repro,
2004-05-26,1.99, 3.45, 7.56, 2.17, 1.60, 7.15, repro,
2004-05-27,1.17, 3.59, 4.80, 2.22, 1.65, 7.32, repro,
2004-05-28,-0.21, 0.70, -2.40, 2.25, 1.69, 7.49, repro,
2004-05-29,1.01, 4.98, -7.51, 2.17, 1.63, 7.25, repro,
2004-05-30,2.09, 1.54, 5.67, 2.23, 1.69, 7.47, repro,
2004-05-31,1.17, 2.40, 4.90, 2.22, 1.65, 7.27, repro,
2004-06-01,2.86, 3.10, 4.87, 2.21, 1.61, 7.28, repro,
2004-06-02,3.44, 2.35, -3.65, 2.19, 1.62, 7.32, repro,
2004-06-03,2.94, 3.49, -4.26, 2.17, 1.61, 7.22, repro,
2004-06-04,2.50, 3.04, -8.22, 2.18, 1.62, 7.29, repro,
2004-06-05,3.61, 1.98, -6.30, 2.16, 1.62, 7.23, repro,
2004-06-06,2.36, 4.49, 1.14, 2.17, 1.63, 7.27, repro,
2004-06-07,4.61, 3.27, 2.74, 2.19, 1.62, 7.30, repro,
2004-06-08,3.08, 3.07, 0.83, 2.20, 1.62, 7.30, repro,
2004-06-09,2.75, 2.10, 11.65, 2.20, 1.65, 7.43, repro,
2004-06-10,1.42, 4.61, -7.91, 2.25, 1.67, 7.56, repro,
2004-06-11,1.36, 3.88, 0.22, 2.20, 1.62, 7.28, repro,
2004-06-12,0.85, 2.59, -14.40, 2.24, 1.68, 7.48, repro,
2004-06-13,1.16, 2.12, 5.46, 2.20, 1.62, 7.34, repro,
2004-06-14,2.54, 2.92, 5.17, 2.24, 1.68, 7.56, repro,
2004-06-15,1.78, 2.52, -1.04, 2.29, 1.69, 7.59, repro,
2004-06-16,4.12, 2.30, -9.45, 2.23, 1.63, 7.38, repro,
2004-06-17,4.61, 3.39, -9.46, 2.23, 1.65, 7.40, repro,
2004-06-18,3.93, 3.65, -4.24, 2.26, 1.64, 7.43, repro,
2004-06-19,2.89, 3.66, -5.68, 2.18, 1.63, 7.29, repro,
2004-06-20,4.48, 3.78, -3.34, 2.19, 1.63, 7.31, repro,
2004-06-21,3.19, 3.25, -1.40, 2.19, 1.62, 7.25, repro,
2004-06-22,1.59, 3.76, 3.42, 2.18, 1.61, 7.18, repro,
2004-06-23,2.14, 3.93, -11.88, 2.20, 1.63, 7.25, repro,
2004-06-24,1.73, 2.48, -5.67, 2.19, 1.63, 7.26, repro,
2004-06-25,3.76, 3.67, -5.29, 2.23, 1.68, 7.48, repro,
2004-06-26,3.42, 4.80, -4.89, 2.25, 1.66, 7.36, repro,
2004-06-27,4.26, 4.53, -2.15, 2.19, 1.62, 7.25, repro,
2004-06-28,3.35, 3.35, -11.28, 2.23, 1.65, 7.37, repro,
2004-06-29,3.95, 2.63, -5.56, 2.30, 1.68, 7.57, repro,
2004-06-30,3.87, 3.06, -6.00, 2.26, 1.65, 7.42, repro,
2004-07-01,3.10, 3.26, 4.87, 2.19, 1.64, 7.25, repro,
2004-07-02,1.35, 3.59, -7.25, 2.18, 1.65, 7.27, repro,
2004-07-03,4.95, 3.48, -10.61, 2.29, 1.67, 7.48, repro,
2004-07-04,3.05, 2.72, -5.28, 2.19, 1.63, 7.24, repro,
2004-07-05,5.00, 4.15, 0.93, 2.22, 1.63, 7.27, repro,
2004-07-06,3.14, 2.58, -0.58, 2.18, 1.61, 7.18, repro,
2004-07-07,3.68, 4.44, -2.96, 2.27, 1.67, 7.44, repro,
2004-07-08,1.87, 3.79, 5.69, 2.21, 1.64, 7.28, repro,
2004-07-09,1.97, 3.42, 0.96, 2.28, 1.66, 7.41, repro,
2004-07-10,2.59, 2.46, -1.55, 2.25, 1.63, 7.31, repro,
2004-07-11,3.57, 4.17, 11.11, 2.23, 1.63, 7.33, repro,
2004-07-12,2.48, 3.78, 6.23, 2.21, 1.64, 7.31, repro,
2004-07-13,1.62, 3.59, -1.74, 2.17, 1.63, 7.26, repro,
2004-07-14,1.77, 4.99, -5.42, 2.20, 1.65, 7.35, repro,
2004-07-15,1.13, 3.20, 0.07, 2.21, 1.64, 7.35, repro,
2004-07-16,2.28, 3.17, -1.67, 2.33, 1.77, 7.90, repro,
2004-07-17,4.96, 4.29, 0.38, 2.17, 1.64, 7.32, repro,
2004-07-18,2.04, 3.51, -0.19, 2.24, 1.65, 7.33, repro,
2004-07-19,0.53, 3.37, 1.07, 2.18, 1.63, 7.26, repro,
2004-07-20,2.66, 1.69, -6.73, 2.26, 1.69, 7.46, repro,
2004-07-21,-0.42, 3.65, 0.23, 2.15, 1.61, 7.14, repro,
2004-07-22,3.81, 4.91, -9.52, 2.17, 1.62, 7.19, repro,
2004-07-23,2.40, 4.67, -2.61, 2.14, 1.62, 7.10, repro,
2004-07-24,3.18, 4.53, -4.21, 2.14, 1.61, 7.11, repro,
2004-07-25,1.70, 5.20, -5.85, 2.17, 1.63, 7.26, repro,
2004-07-26,2.82, 4.81, -5.67, 2.14, 1.62, 7.14, repro,
2004-07-27,2.38, 3.07, 2.03, 2.20, 1.65, 7.38, repro,
2004-07-28,2.03, 3.83, 2.67, 2.15, 1.62, 7.13, repro,
2004-07-29,2.17, 2.53, 8.83, 2.21, 1.65, 7.27, repro,
2004-07-30,3.44, 3.74, 0.18, 2.20, 1.65, 7.24, repro,
2004-07-31,2.59, 3.02, 2.66, 2.17, 1.63, 7.26, repro,
2004-08-01,3.24, 2.47, -3.49, 2.16, 1.61, 7.18, repro,
2004-08-02,2.68, 2.90, 2.94, 2.15, 1.61, 7.12, repro,
2004-08-03,2.64, 3.60, -1.41, 2.22, 1.62, 7.27, repro,
2004-08-04,2.43, 6.06, -2.05, 2.29, 1.69, 7.48, repro,
2004-08-05,1.38, 3.59, 9.46, 2.21, 1.66, 7.37, repro,
2004-08-06,4.72, 2.42, -1.61, 2.23, 1.65, 7.41, repro,
2004-08-07,1.78, 3.47, 8.99, 2.17, 1.61, 7.19, repro,
2004-08-08,2.19, 4.43, -0.45, 2.15, 1.59, 7.08, repro,
2004-08-09,2.49, 5.12, -0.60, 2.17, 1.60, 7.13, repro,
2004-08-10,2.60, 5.30, -2.22, 2.16, 1.61, 7.14, repro,
2004-08-11,3.40, 3.95, -4.11, 2.22, 1.65, 7.32, repro,
2004-08-12,3.09, 3.78, -2.49, 2.20, 1.64, 7.23, repro,
2004-08-13,2.17, 4.41, -6.41, 2.20, 1.65, 7.29, repro,
2004-08-14,2.67, 4.24, -3.43, 2.18, 1.61, 7.20, repro,
2004-08-15,3.23, 4.30, -1.57, 2.17, 1.60, 7.10, repro,
2004-08-16,3.82, 5.51, -6.38, 2.19, 1.66, 7.30, repro,
2004-08-17,1.77, 4.02, -0.59, 2.26, 1.67, 7.42, repro,
2004-08-18,0.67, 3.29, 2.19, 2.15, 1.60, 7.12, repro,
2004-08-19,0.71, 3.42, -1.96, 2.19, 1.61, 7.21, repro,
2004-08-20,2.86, 4.66, -3.94, 2.19, 1.61, 7.28, repro,
2004-08-21,4.22, 3.62, 5.14, 2.15, 1.61, 7.15, repro,
2004-08-22,0.18, 2.66, 5.84, 2.17, 1.60, 7.16, repro,
2004-08-23,2.10, 4.99, 9.94, 2.15, 1.60, 7.11, repro,
2004-08-24,2.21, 4.63, 5.53, 2.21, 1.63, 7.20, repro,
2004-08-25,1.27, 3.24, -3.59, 2.33, 1.67, 7.52, repro,
2004-08-26,2.87, 4.16, -7.37, 2.19, 1.62, 7.21, repro,
2004-08-27,4.33, 3.74, -1.75, 2.15, 1.59, 7.08, repro,
2004-08-28,1.46, 3.47, 4.10, 2.18, 1.64, 7.26, repro,
2004-08-29,2.34, 4.34, 4.83, 2.24, 1.68, 7.34, repro,
2004-08-30,2.15, 2.88, -2.73, 2.30, 1.70, 7.58, repro,
2004-08-31,3.53, 3.75, -9.10, 2.25, 1.65, 7.30, repro,
2004-09-01,2.70, 3.19, 0.24, 2.23, 1.64, 7.23, repro,
2004-09-02,4.42, 4.36, -0.89, 2.22, 1.64, 7.25, repro,
2004-09-03,3.13, 3.24, 10.60, 2.16, 1.58, 7.03, repro,
2004-09-04,2.75, 2.92, 6.37, 2.24, 1.64, 7.30, repro,
2004-09-05,1.65, 3.90, 4.44, 2.22, 1.63, 7.22, repro,
2004-09-06,2.82, 2.53, 5.41, 2.24, 1.64, 7.31, repro,
2004-09-07,2.22, 3.34, 8.39, 2.17, 1.60, 7.11, repro,
2004-09-08,2.77, 3.41, 3.93, 2.22, 1.63, 7.21, repro,
2004-09-09,2.48, 4.15, 9.03, 2.18, 1.61, 7.16, repro,
2004-09-10,1.61, 4.95, -4.52, 2.18, 1.61, 7.21, repro,
2004-09-11,0.53, 2.92, 3.36, 2.27, 1.66, 7.52, repro,
2004-09-12,1.24, 3.53, 9.23, 2.19, 1.61, 7.12, repro,
2004-09-13,2.33, 3.36, -4.29, 2.23, 1.63, 7.30, repro,
2004-09-14,3.46, 0.95, 73.63, 2.54, 1.86, 9.01, repro,
2004-09-15,1.52, -1.21, 104.06, 2.73, 2.14, 10.47, repro,
2004-09-16,0.92, 4.84, 3.73, 2.17, 1.59, 7.12, repro,
2004-09-17,1.16, 2.61, 3.46, 2.24, 1.63, 7.26, repro,
2004-09-18,4.37, 2.55, 4.83, 2.17, 1.60, 7.11, repro,
2004-09-19,2.32, 3.20, 9.88, 2.18, 1.61, 7.18, repro,
2004-09-20,3.84, 2.63, -0.72, 2.21, 1.64, 7.29, repro,
2004-09-21,2.75, 2.55, -3.01, 2.15, 1.58, 7.02, repro,
2004-09-22,3.39, 2.51, -3.61, 2.20, 1.61, 7.16, repro,
2004-09-24,2.73, 2.54, 1.05, 2.20, 1.63, 7.23, repro,
2004-09-25,2.94, 2.32, 5.28, 2.20, 1.63, 7.25, repro,
2004-09-26,4.36, 1.87, 0.07, 2.14, 1.59, 7.04, repro,
2004-09-27,2.55, 3.87, -3.12, 2.22, 1.62, 7.23, repro,
2004-09-28,2.93, 3.24, 0.10, 2.15, 1.58, 7.02, repro,
2004-09-29,4.34, 2.60, 7.13, 2.16, 1.58, 7.08, repro,
2004-09-30,2.76, 4.29, 5.31, 2.16, 1.60, 7.13, repro,
2004-10-01,3.36, 3.38, 1.50, 2.15, 1.60, 7.14, repro,
2004-10-02,1.94, 2.42, 2.29, 2.17, 1.59, 7.13, repro,
2004-10-03,4.82, 3.34, -3.36, 2.15, 1.59, 7.09, repro,
2004-10-04,3.46, 4.31, -2.74, 2.16, 1.59, 7.07, repro,
2004-10-05,3.77, 2.83, 0.99, 2.16, 1.59, 7.11, repro,
2004-10-06,2.77, 2.35, 7.47, 2.14, 1.60, 7.15, repro,
2004-10-07,2.55, 3.40, 2.89, 2.16, 1.61, 7.18, repro,
2004-10-08,2.52, 2.69, 2.47, 2.21, 1.63, 7.22, repro,
2004-10-09,1.55, 2.92, 2.01, 2.21, 1.63, 7.20, repro,
2004-10-10,2.35, 2.51, 7.03, 2.28, 1.71, 7.49, repro,
2004-10-11,4.28, 2.45, 15.19, 2.19, 1.63, 7.18, repro,
2004-10-12,4.15, 3.57, -2.81, 2.22, 1.65, 7.34, repro,
2004-10-13,3.27, 3.34, -1.14, 2.25, 1.66, 7.39, repro,
2004-10-14,4.29, 3.28, 2.78, 2.17, 1.61, 7.19, repro,
2004-10-15,4.00, 2.94, 11.07, 2.24, 1.62, 7.27, repro,
2004-10-16,3.29, 2.59, 3.24, 2.14, 1.58, 7.00, repro,
2004-10-17,3.49, 3.77, 9.57, 2.15, 1.59, 7.05, repro,
2004-10-18,2.11, 4.75, -0.97, 2.22, 1.62, 7.35, repro,
2004-10-19,2.15, 5.98, 8.30, 2.27, 1.63, 7.30, repro,
2004-10-20,6.12, 5.67, 2.41, 2.44, 1.79, 8.03, repro,
2004-10-21,7.97, 5.92, 103.13, 2.24, 1.61, 7.29, repro,
2004-10-22,3.04, 2.24, 16.09, 2.21, 1.59, 7.11, repro,
2004-10-23,0.30, 3.46, -4.90, 2.18, 1.60, 7.13, repro,
2004-10-24,-3.91, 0.14, -27.21, 2.21, 1.60, 7.15, repro,
2004-10-25,2.78, 5.51, -17.04, 2.22, 1.61, 7.22, repro,
2004-10-26,6.06, 5.40, -21.58, 2.33, 1.69, 7.60, repro,
2004-10-27,4.00, 2.19, 11.32, 2.49, 1.79, 8.11, repro,
2004-10-28,-9.65, 6.67, 23.39, 2.49, 1.75, 8.12, repro,
2004-10-29,-8.95, 8.32, -2.79, 2.17, 1.60, 7.12, repro,
2004-10-30,-8.43, 9.43, 8.08, 2.28, 1.66, 7.49, repro,
2004-10-31,-4.83, 9.97, -10.33, 2.17, 1.60, 7.08, repro,
2004-11-01,-3.03, 8.48, -18.99, 2.26, 1.64, 7.36, repro,
2004-11-02,-1.41, 6.77, -13.85, 2.18, 1.59, 7.11, repro,
2004-11-03,-3.73, 5.14, -13.24, 2.22, 1.65, 7.31, repro,
2004-11-04,-2.70, 7.31, -9.10, 2.19, 1.60, 7.12, repro,
2004-11-05,2.63, 2.12, -4.12, 2.28, 1.72, 7.48, repro,
2004-11-06,3.63, 2.98, -5.38, 2.21, 1.64, 7.24, repro,
2004-11-07,4.97, 2.99, -3.90, 2.19, 1.62, 7.16, repro,
2004-11-08,5.36, 3.76, -7.46, 2.66, 2.03, 8.92, repro,
2004-11-09,4.42, 2.77, -6.50, 2.26, 1.67, 7.47, repro,
2004-11-10,5.25, 3.30, -9.08, 2.26, 1.68, 7.55, repro,
2004-11-11,5.56, 4.38, -5.80, 2.22, 1.66, 7.30, repro,
2004-11-12,4.29, 3.35, -4.36, 2.24, 1.64, 7.35, repro,
2004-11-13,5.08, 4.20, -7.81, 2.15, 1.60, 7.00, repro,
2004-11-14,3.83, 3.44, -8.94, 2.20, 1.65, 7.19, repro,
2004-11-15,4.64, 4.53, -3.65, 2.23, 1.64, 7.21, repro,
2004-11-16,4.32, 2.63, -1.55, 2.15, 1.61, 7.06, repro,
2004-11-17,5.33, 2.76, -7.34, 2.16, 1.61, 7.08, repro,
2004-11-18,4.59, 2.89, -1.35, 2.16, 1.65, 7.19, repro,
2004-11-19,4.63, 3.42, -3.50, 2.22, 1.69, 7.33, repro,
2004-11-20,5.41, 3.61, -4.62, 2.27, 1.67, 7.36, repro,
2004-11-21,4.93, 3.42, -6.43, 2.37, 1.78, 7.78, repro,
2004-11-22,5.63, 3.28, -4.02, 2.20, 1.69, 7.39, repro,
2004-11-23,4.09, 2.29, 2.09, 2.21, 1.62, 7.18, repro,
2004-11-24,4.12, 3.66, -1.39, 2.36, 1.70, 7.62, repro,
2004-11-25,2.99, 4.73, 0.27, 2.23, 1.74, 7.43, repro,
2004-11-26,5.27, 4.65, -10.45, 2.17, 1.66, 7.18, repro,
2004-11-27,4.50, 4.46, -4.94, 2.24, 1.73, 7.44, repro,
2004-11-28,5.07, 3.53, -2.68, 2.15, 1.65, 7.16, repro,
2004-11-29,6.67, 2.54, -6.82, 2.11, 1.58, 6.96, repro,
2004-11-30,3.54, 4.84, -8.78, 2.11, 1.58, 6.91, repro,
2004-12-01,4.84, 4.93, -6.74, 2.23, 1.64, 7.19, repro,
2004-12-02,5.24, 3.52, -8.90, 2.21, 1.61, 7.13, repro,
2004-12-03,4.90, 2.71, -5.75, 2.24, 1.66, 7.39, repro,
2004-12-04,6.20, 2.59, -7.48, 2.13, 1.63, 7.16, repro,
2004-12-05,3.42, 3.32, -6.14, 2.11, 1.58, 6.95, repro,
2004-12-06,1.42, 7.54, -5.85, 2.25, 1.73, 7.43, repro,
2004-12-07,2.86, 5.02, -6.67, 2.25, 1.65, 7.30, repro,
2004-12-08,3.36, 4.14, -1.56, 2.23, 1.65, 7.21, repro,
2004-12-09,8.76, 0.59, -20.05, 2.20, 1.67, 7.18, repro,
2004-12-10,6.81, 4.59, -7.32, 2.23, 1.65, 7.35, repro,
2004-12-11,-20.84, -8.55, -0.46, 2.33, 1.74, 8.01, repro,